SCP
0 0 0 0 0 0 0 0 0 0 0 0 0 0 0 0 0 0 0 0 0 -1 -0 -0 0 -1 -0 -0 -0 -0 -0 -0 -1 -0 -0 -0 -0 -0 -0 -0 -0 0 0 0 -0 0 0 0 0
0 0 0 0 0 0 0 0 0 0 0 0 0 0 0 0 0 0 0 0 -0 -0 0 0 0 0 -1 -0 -0 -0 -0 -0 -0 -0 -0 -0 -0 -0 -0 -0 -0 -0 0 -0 -0 0 0 0 0
0 0 0 0 0 0 0 0 0 0 0 0 0 0 0 0 0 0 0 0 0 0 0 0 0 0 -0 -0 -0 -0 -0 -0 -0 -0 -0 -0 -0 -0 -0 -0 -0 -0 -0 -0 -0 0 0 0 0
0 0 0 0 0 0 0 0 0 0 0 0 0 0 0 0 0 0 -0 0 -0 -0 0 0 0 0 0 -0 -0 -0 -0 -0 -0 -0 -0 -0 -0 -0 -0 -0 -0 -0 -0 -0 0 0 0 0 0
0 0 0 0 0 0 0 0 0 0 0 0 0 0 0 0 0 0 -0 0 0 0 -0 0 1 0 0 0 0 0 -0 -0 -0 -0 -0 -0 -0 -0 -0 -0 -0 -0 -0 0 0 0 0 0 0
0 0 0 0 0 0 0 0 0 0 0 0 0 0 0 0 0 0 0 0 0 0 0 0 0 0 0 0 0 0 0 -0 -0 -0 -0 -0 -0 -0 -0 -0 -0 -0 0 0 0 0 0 0 0
0 0 0 0 0 0 0 0 0 0 0 0 0 0 0 0 0 0 0 0 1 0 0 0 0 0 0 0 0 0 0 0 0 0 0 0 0 0 -0 0 0 0 0 0 0 0 0 0 0
0 0 0 0 0 0 0 0 0 0 0 0 0 0 0 0 0 0 -0 0 1 0 0 0 0 0 0 0 0 0 0 0 0 0 0 0 0 0 0 0 0 0 0 0 0 0 0 0 0
0 0 0 0 0 0 0 0 0 0 0 0 0 0 0 0 0 -0 -0 0 0 1 0 0 0 0 0 0 0 0 0 0 0 0 0 0 0 0 0 0 0 0 0 0 0 0 0 0 0
0 0 0 0 0 0 0 0 0 0 0 0 0 0 0 0 0 -0 -0 -0 0 1 1 0 0 0 0 0 0 0 0 0 0 0 0 0 0 0 0 0 0 0 0 0 0 0 0 0 0
0 0 0 0 0 0 0 0 0 0 0 0 0 0 0 0 0 0 -0 -0 0 1 1 1 1 0 0 0 0 0 0 0 0 0 0 0 0 0 0 0 0 0 0 0 0 0 0 0 0
0 0 -0 0 0 0 0 0 0 0 0 0 0 0 0 0 0 0 0 -0 -0 0 0 1 1 1 0 0 0 0 0 0 0 0 0 0 0 0 0 0 0 0 0 0 0 0 0 0 0
-0 -0 -0 -0 -0 -0 -0 -0 -0 0 -0 -0 0 0 0 0 0 0 0 0 -0 0 1 1 1 1 1 1 0 0 0 0 0 0 0 0 0 0 0 0 0 0 0 0 0 0 0 0 0
0 -0 -0 0 0 -0 -0 -0 0 0 -0 -0 0 0 0 0 0 0 0 -0 0 1 1 1 1 2 1 1 1 0 0 0 0 0 0 0 0 0 0 0 0 0 0 0 0 0 0 0 0
0 0 0 0 0 0 0 -0 0 -0 0 0 0 0 0 0 0 0 0 -0 0 1 1 1 1 2 1 1 1 0 0 0 0 0 0 0 0 0 0 0 0 0 0 0 0 0 0 0 0
0 0 0 0 0 0 0 0 0 -0 0 -0 0 0 0 0 0 0 0 0 -0 1 1 1 1 1 1 1 1 0 0 0 0 0 0 0 0 0 0 0 0 0 0 0 0 0 0 0 0
0 0 0 0 0 -0 0 0 0 0 0 0 0 0 0 0 0 0 0 0 0 -0 0 0 1 1 1 1 1 0 0 0 0 0 0 0 0 0 0 0 0 0 0 0 0 0 0 0 0
0 -0 0 0 0 0 0 0 0 0 0 0 0 0 0 0 0 0 0 0 1 0 0 1 2 2 2 2 1 0 0 0 0 0 0 0 0 0 0 0 0 0 0 0 0 0 0 0 0
0 -0 0 -0 0 -0 0 0 0 0 0 0 0 0 0 0 0 0 0 0 1 1 1 2 2 2 2 1 1 1 0 0 0 0 0 0 0 0 0 0 0 0 0 0 0 0 0 0 0
0 -0 -0 0 0 0 0 0 0 0 0 0 0 0 0 0 0 0 0 0 0 1 1 2 3 2 2 2 1 1 0 0 0 0 0 0 0 0 0 0 0 0 0 0 0 0 0 0 0
0 0 0 0 0 0 0 0 0 0 0 0 0 0 0 0 0 0 0 0 0 1 1 2 2 2 2 2 2 1 0 0 0 0 0 0 0 0 0 0 0 0 0 0 0 0 0 0 0
0 0 0 0 0 0 0 0 0 0 0 0 0 0 0 0 0 0 0 0 0 1 1 2 1 1 1 1 1 0 0 0 0 0 0 0 1 0 0 0 0 0 0 0 0 0 0 0 0
0 0 0 0 0 0 0 0 0 0 0 0 0 0 0 0 0 0 0 0 0 1 1 2 1 1 0 1 1 1 1 0 0 0 0 0 1 0 0 0 0 0 0 0 0 0 0 0 0
0 0 -0 0 0 0 0 0 0 0 0 0 -0 0 0 0 0 0 0 0 0 1 1 1 0 1 0 1 1 1 1 1 0 0 0 1 0 0 0 0 0 0 0 0 0 0 0 0 0
0 0 0 0 0 0 0 0 0 0 0 -0 0 -0 0 0 0 0 0 0 0 1 1 1 1 1 1 1 1 2 3 2 1 1 1 0 0 0 0 0 0 0 0 0 0 0 0 0 0
-0 0 0 0 0 0 0 0 0 0 0 -0 -0 -0 -0 0 -0 0 0 0 1 1 1 1 1 1 1 2 2 2 3 4 2 1 1 0 0 0 0 0 0 0 0 0 0 0 0 0 0
0 0 0 0 0 0 0 0 0 0 -0 0 0 0 0 -0 -0 -0 0 0 1 1 1 1 1 1 2 1 2 2 3 1 1 1 0 0 0 0 0 0 0 0 0 0 0 0 0 0 0
0 0 0 0 0 0 0 0 0 -0 -0 -0 0 0 -0 -0 0 0 0 0 1 0 1 1 1 1 1 1 2 3 3 2 1 0 0 0 0 0 0 0 0 0 0 0 0 0 0 0 0
0 0 0 0 0 0 0 0 0 0 -0 -0 -0 -0 -0 -0 0 -0 0 0 0 0 1 1 1 1 1 1 2 2 1 1 0 0 0 0 0 0 0 0 0 0 0 0 0 0 0 0 0
0 0 0 0 0 0 0 0 0 0 -0 0 -0 -0 -0 -0 0 0 0 0 0 1 1 0 0 1 1 1 1 1 0 0 0 0 0 0 0 0 0 0 0 0 0 0 0 0 0 0 0
Wind_Speed_500mb
8 10 16 14 7 4 8 10 5 14 9 4 3 5 10 7 9 3 12 16 40 53 68 68 61 54 51 54 61 58 54 52 47 42 41 39 36 36 29 24 24 25 24 23 21 20 17 14 9
8 18 20 7 8 14 11 6 20 12 8 21 8 15 14 15 22 32 34 23 43 42 66 69 63 58 55 56 62 59 56 52 48 45 42 38 34 35 30 25 26 25 24 22 20 17 15 12 9
12 25 10 7 7 18 9 9 9 14 14 12 8 5 10 6 14 12 34 26 43 47 68 69 64 58 54 59 63 61 57 53 48 45 43 41 37 34 28 27 27 26 24 23 20 17 13 9 7
14 9 6 9 22 8 4 10 5 12 2 7 14 18 10 14 16 23 41 24 29 48 65 70 65 58 54 58 62 61 58 53 50 47 44 42 39 34 31 30 28 27 25 22 20 17 13 10 7
16 6 8 9 12 6 10 12 12 15 14 15 15 13 12 14 24 31 33 30 36 50 68 72 67 60 57 56 59 60 57 54 51 50 48 44 39 35 33 32 30 28 26 23 19 15 13 11 7
6 2 7 20 17 5 6 12 16 12 13 20 12 25 6 12 38 48 42 27 34 61 68 74 69 62 57 55 55 56 56 54 52 50 49 45 39 37 35 33 32 29 26 21 18 15 11 9 7
3 2 4 3 3 4 2 17 8 7 20 13 28 15 14 23 44 54 50 26 38 58 68 77 72 64 58 54 53 54 54 54 53 52 48 43 40 38 34 33 32 30 28 22 17 14 13 10 4
8 1 2 2 1 6 1 22 12 18 20 25 16 11 10 23 63 48 42 23 38 55 70 79 76 70 65 59 54 54 54 54 53 51 48 44 40 37 34 33 32 30 26 22 18 16 12 8 2
8 4 5 6 8 2 15 16 23 21 32 35 32 46 47 61 48 34 20 20 33 49 63 81 80 76 70 63 59 55 55 54 53 51 48 46 44 40 37 35 32 29 25 22 19 18 14 7 3
4 5 12 9 8 14 25 27 26 19 33 43 45 55 48 44 41 29 22 24 34 49 62 75 79 79 74 67 62 60 60 59 57 55 52 49 45 42 38 34 32 28 24 20 17 17 15 10 8
4 7 6 16 26 27 19 32 34 31 36 40 41 52 53 47 40 32 30 32 38 40 51 66 82 81 75 72 70 66 64 65 64 58 54 49 47 43 40 36 29 25 23 18 16 14 12 10 9
10 16 23 28 29 23 29 35 44 50 51 51 52 54 58 55 49 41 36 37 37 49 52 60 75 85 80 77 71 68 67 66 64 60 55 51 48 44 40 34 28 26 23 19 18 14 13 16 12
12 7 11 28 42 52 46 49 52 63 60 59 59 54 55 53 58 53 49 40 41 45 61 66 71 85 87 82 76 71 67 64 61 59 55 51 46 42 37 30 27 28 25 19 17 16 16 12 11
8 27 41 36 47 27 23 42 27 26 32 47 59 54 58 55 55 55 48 36 48 50 58 71 74 83 90 87 82 75 68 62 59 59 54 50 45 39 35 30 28 26 22 18 19 20 17 13 17
20 27 30 23 5 10 23 39 28 35 29 36 42 41 38 45 46 55 47 40 50 58 59 70 85 86 89 90 87 78 72 63 60 57 53 51 46 40 33 32 29 26 22 18 15 15 14 14 19
17 8 14 5 22 20 6 52 25 28 18 25 32 39 46 49 49 50 44 41 41 54 62 70 80 84 87 94 88 81 73 64 59 55 53 50 45 40 35 33 30 26 22 18 17 18 15 18 22
4 22 40 32 9 17 13 49 6 18 45 63 60 65 54 54 52 56 43 40 36 47 59 69 72 84 88 87 88 82 75 68 61 55 51 47 44 40 35 31 29 26 21 19 20 20 18 21 25
33 40 39 40 16 37 53 64 55 59 54 61 58 56 55 54 56 55 48 36 35 46 60 66 72 78 83 83 89 84 77 74 68 60 52 48 44 44 39 32 28 24 22 20 22 22 22 22 23
28 32 41 50 48 42 48 46 61 52 59 58 66 58 56 55 59 56 56 42 38 53 66 67 77 81 87 85 86 84 83 78 71 62 52 46 44 43 38 33 28 27 25 23 24 24 23 23 19
29 35 42 34 25 35 52 56 59 55 51 64 69 64 64 57 56 58 67 51 44 60 71 68 72 80 82 85 82 79 85 79 71 63 54 47 45 45 39 33 31 29 26 25 27 25 23 21 16
23 24 31 45 48 41 51 48 35 47 40 40 52 64 64 64 61 66 73 62 48 56 75 78 73 74 81 81 71 72 75 71 69 62 56 51 48 49 40 34 29 25 24 26 24 21 18 18 16
25 10 35 49 38 22 30 24 41 30 27 23 39 53 57 61 67 66 73 69 51 55 62 84 77 74 76 83 77 71 78 78 72 69 60 55 53 50 43 35 29 27 25 22 20 20 18 13 13
19 34 44 48 39 29 21 12 17 27 25 39 34 45 55 59 60 68 68 59 57 51 59 82 87 80 72 71 73 65 67 66 62 60 61 61 55 51 44 37 33 28 26 22 17 17 13 12 10
36 32 45 5 2 8 11 10 24 13 22 43 49 49 50 55 63 68 67 62 50 48 53 71 91 83 71 65 62 65 68 62 60 65 65 65 59 52 46 41 36 32 27 24 19 13 14 10 8
23 25 10 6 6 13 7 8 24 32 29 47 44 47 34 43 53 60 57 48 46 50 55 67 86 88 80 64 61 60 59 55 57 61 71 67 61 55 52 47 43 36 33 24 17 11 8 5 6
30 9 3 14 18 34 28 11 9 25 34 54 45 37 15 36 50 50 55 50 48 57 57 65 83 90 74 62 37 55 59 58 54 63 70 61 63 63 56 53 46 38 30 22 15 8 5 3 4
10 21 24 11 13 13 6 10 21 23 45 51 48 47 27 14 41 47 52 51 50 57 61 65 67 82 83 63 60 63 71 63 54 63 64 67 65 61 57 54 45 36 30 22 14 8 4 3 6
13 21 7 4 13 15 9 9 8 41 53 52 46 43 44 25 17 39 51 52 50 54 57 57 63 80 85 83 79 82 80 75 76 78 78 74 69 65 56 52 44 39 30 20 13 9 6 5 6
9 9 7 8 7 9 10 9 10 30 35 38 40 52 41 28 22 29 43 45 49 50 53 64 66 77 85 84 76 76 74 72 79 75 69 65 69 63 44 56 47 37 25 19 15 9 5 3 3
8 13 17 7 13 8 7 9 16 30 29 35 40 57 47 26 19 25 31 38 52 58 66 64 80 78 73 73 71 83 79 75 77 80 74 70 77 62 66 57 43 32 26 22 13 7 5 4 9
Wind_Direction_500mb
212 190 168 153 205 248 223 219 288 216 209 42 165 208 239 276 198 249 322 286 206 195 184 184 184 180 181 178 179 179 179 179 183 184 181 175 176 176 174 170 167 165 159 155 152 153 154 153 146
166 160 151 123 234 223 223 225 212 220 346 323 284 267 249 267 253 281 306 278 201 211 191 186 186 184 182 181 181 180 181 184 184 185 184 182 181 179 175 172 166 164 162 159 158 160 158 160 159
158 158 155 189 213 230 251 192 245 286 314 326 308 301 280 275 320 290 310 288 197 207 193 188 186 187 186 183 183 184 184 185 187 192 190 186 183 182 177 172 168 168 168 166 167 165 166 175 188
149 142 74 228 215 215 264 136 354 341 280 22 328 283 287 312 318 308 309 290 219 201 194 191 189 189 190 186 186 186 189 192 193 194 193 188 181 181 176 173 173 173 174 175 175 173 171 189 192
156 140 206 233 226 258 239 267 296 313 306 315 334 282 296 347 19 1 328 285 251 209 196 193 190 191 193 192 189 189 192 195 195 192 188 186 182 181 178 176 177 179 179 183 181 180 181 188 187
117 90 222 242 233 225 259 309 301 311 320 316 323 307 258 113 2 350 340 298 222 206 199 194 193 191 193 195 193 193 192 192 193 190 186 185 184 183 181 181 180 181 184 188 189 187 185 188 180
81 169 265 293 234 276 7 348 41 8 321 302 323 283 276 266 339 337 331 298 216 205 200 195 192 191 196 198 197 196 194 192 191 190 188 187 185 185 185 183 183 184 186 193 198 198 185 185 197
105 75 342 339 2 257 262 346 332 326 304 309 286 257 284 286 324 330 329 284 230 213 202 198 196 194 193 194 197 197 197 194 193 193 190 188 186 188 188 187 185 188 189 196 204 203 190 185 170
107 184 215 241 235 205 296 314 298 291 278 279 268 279 286 298 315 322 307 256 220 212 201 200 197 197 196 197 194 196 198 197 197 196 193 189 188 190 192 191 188 191 194 201 208 205 203 222 267
147 210 222 209 220 265 283 281 283 281 279 278 279 280 288 295 307 304 277 247 225 214 202 200 198 200 197 197 198 195 197 197 198 198 195 192 191 195 194 195 193 192 198 201 205 204 214 236 267
156 253 243 252 259 287 264 274 275 268 266 266 271 285 290 296 297 284 276 255 234 218 207 202 202 203 200 198 197 198 199 199 200 200 199 194 193 196 196 199 196 194 198 196 195 203 221 242 264
273 261 266 283 285 276 268 280 270 258 258 269 269 277 285 285 288 288 270 252 233 223 213 209 207 205 203 204 201 201 201 203 203 200 199 197 197 198 200 200 194 197 199 199 206 218 243 260 271
251 254 267 277 281 276 279 265 263 270 264 259 262 265 269 273 283 287 285 251 232 222 220 211 211 208 205 206 205 204 205 205 204 203 200 200 202 203 203 200 195 198 203 211 221 239 260 255 264
285 284 289 281 275 271 259 270 257 264 275 264 264 258 266 270 273 277 284 251 227 239 226 216 213 213 209 206 208 206 207 207 206 207 203 203 205 207 205 201 195 202 210 223 236 244 253 252 279
285 295 308 283 296 257 301 268 244 263 282 276 266 266 268 271 268 266 271 266 236 237 236 224 218 216 211 207 208 208 209 207 209 208 207 207 206 209 205 199 200 213 220 229 246 238 248 270 284
296 289 325 356 287 306 283 278 295 273 261 263 261 269 286 276 272 264 266 261 251 229 222 224 218 213 210 208 208 208 209 210 211 213 209 209 208 210 209 206 210 219 225 237 240 245 257 275 292
10 308 314 315 297 290 257 290 288 270 284 276 267 269 268 272 275 261 264 258 250 234 221 214 210 208 208 208 207 209 210 210 212 215 215 212 211 211 205 208 216 226 235 242 241 247 265 280 295
307 305 302 294 286 287 284 280 285 282 273 270 267 262 259 256 265 260 261 260 238 227 220 215 209 203 204 204 204 207 207 208 211 214 214 213 212 209 213 218 219 230 240 246 247 254 269 286 298
294 292 292 292 296 291 275 282 284 283 273 264 260 253 245 247 254 256 254 255 232 220 211 213 203 205 208 206 205 205 206 208 210 214 215 216 212 211 213 218 222 226 237 245 249 259 276 290 295
287 287 287 291 293 300 290 286 288 284 276 270 264 256 246 237 240 250 245 250 236 217 212 210 213 210 208 208 205 207 205 206 210 212 215 216 211 210 215 224 223 231 240 247 251 260 272 275 283
290 273 286 295 307 288 287 285 290 300 303 281 269 257 253 245 235 235 238 237 234 214 216 209 207 210 211 207 200 197 198 205 209 211 214 212 208 209 214 216 224 237 239 240 248 255 266 269 294
307 311 299 297 308 306 330 297 301 308 319 304 273 265 257 241 235 236 236 231 226 225 220 214 202 197 201 200 194 194 194 199 205 210 210 204 203 204 208 215 222 226 230 236 245 263 266 263 284
279 311 292 292 290 301 296 259 275 311 329 337 314 274 265 242 224 227 232 230 225 220 218 211 202 199 195 194 192 189 196 203 209 209 205 202 196 203 209 214 217 220 223 228 241 254 262 267 287
294 303 303 11 288 256 235 236 293 303 328 330 316 302 267 237 224 230 227 224 229 212 198 205 199 199 196 190 190 192 196 199 201 202 197 196 198 205 206 210 212 215 220 223 234 257 258 269 295
320 354 314 313 263 299 137 239 274 306 318 319 318 313 279 233 219 221 228 206 220 214 189 201 197 197 198 193 184 193 200 200 198 197 194 192 200 205 205 208 206 210 215 217 226 227 245 278 309
322 338 301 307 311 303 312 242 265 325 316 330 327 328 320 240 223 213 220 203 209 217 203 190 188 195 195 197 202 205 201 195 194 195 192 195 204 206 204 204 203 205 207 214 205 205 243 300 275
10 327 324 267 251 277 270 276 285 311 335 344 338 336 338 294 235 213 206 202 202 210 207 201 191 202 204 222 208 201 201 193 192 201 202 204 207 203 197 199 195 207 205 193 189 194 192 222 274
302 317 289 261 308 311 326 299 298 331 331 333 338 329 322 316 284 212 199 201 198 198 197 190 193 195 196 201 197 198 202 203 195 205 196 197 202 199 192 192 190 197 179 166 173 161 161 257 284
354 322 302 258 255 284 315 322 281 321 327 330 329 324 315 297 269 226 204 194 189 186 187 190 180 187 189 193 194 202 209 206 206 209 199 197 196 197 195 188 189 179 158 158 171 157 200 248 357
341 318 311 286 317 296 258 280 347 337 342 345 337 331 321 283 232 195 184 182 181 178 187 190 196 192 198 194 194 194 198 205 201 202 202 201 195 197 178 179 171 163 160 161 156 156 162 102 11
Wind_Speed_850mb
8 10 16 14 7 4 8 10 5 14 9 4 3 5 10 7 9 3 12 16 40 53 68 68 61 54 51 54 61 58 54 52 47 42 41 39 36 36 29 24 24 25 24 23 21 20 17 14 9
8 18 20 7 8 14 11 6 20 12 8 21 8 15 14 15 22 32 34 23 43 42 66 69 63 58 55 56 62 59 56 52 48 45 42 38 34 35 30 25 26 25 24 22 20 17 15 12 9
12 25 10 7 7 18 9 9 9 14 14 12 8 5 10 6 14 12 34 26 43 47 68 69 64 58 54 59 63 61 57 53 48 45 43 41 37 34 28 27 27 26 24 23 20 17 13 9 7
14 9 6 9 22 8 4 10 5 12 2 7 14 18 10 14 16 23 41 24 29 48 65 70 65 58 54 58 62 61 58 53 50 47 44 42 39 34 31 30 28 27 25 22 20 17 13 10 7
16 6 8 9 12 6 10 12 12 15 14 15 15 13 12 14 24 31 33 30 36 50 68 72 67 60 57 56 59 60 57 54 51 50 48 44 39 35 33 32 30 28 26 23 19 15 13 11 7
6 2 7 20 17 5 6 12 16 12 13 20 12 25 6 12 38 48 42 27 34 61 68 74 69 62 57 55 55 56 56 54 52 50 49 45 39 37 35 33 32 29 26 21 18 15 11 9 7
3 2 4 3 3 4 2 17 8 7 20 13 28 15 14 23 44 54 50 26 38 58 68 77 72 64 58 54 53 54 54 54 53 52 48 43 40 38 34 33 32 30 28 22 17 14 13 10 4
8 1 2 2 1 6 1 22 12 18 20 25 16 11 10 23 63 48 42 23 38 55 70 79 76 70 65 59 54 54 54 54 53 51 48 44 40 37 34 33 32 30 26 22 18 16 12 8 2
8 4 5 6 8 2 15 16 23 21 32 35 32 46 47 61 48 34 20 20 33 49 63 81 80 76 70 63 59 55 55 54 53 51 48 46 44 40 37 35 32 29 25 22 19 18 14 7 3
4 5 12 9 8 14 25 27 26 19 33 43 45 55 48 44 41 29 22 24 34 49 62 75 79 79 74 67 62 60 60 59 57 55 52 49 45 42 38 34 32 28 24 20 17 17 15 10 8
4 7 6 16 26 27 19 32 34 31 36 40 41 52 53 47 40 32 30 32 38 40 51 66 82 81 75 72 70 66 64 65 64 58 54 49 47 43 40 36 29 25 23 18 16 14 12 10 9
10 16 23 28 29 23 29 35 44 50 51 51 52 54 58 55 49 41 36 37 37 49 52 60 75 85 80 77 71 68 67 66 64 60 55 51 48 44 40 34 28 26 23 19 18 14 13 16 12
12 7 11 28 42 52 46 49 52 63 60 59 59 54 55 53 58 53 49 40 41 45 61 66 71 85 87 82 76 71 67 64 61 59 55 51 46 42 37 30 27 28 25 19 17 16 16 12 11
8 27 41 36 47 27 23 42 27 26 32 47 59 54 58 55 55 55 48 36 48 50 58 71 74 83 90 87 82 75 68 62 59 59 54 50 45 39 35 30 28 26 22 18 19 20 17 13 17
20 27 30 23 5 10 23 39 28 35 29 36 42 41 38 45 46 55 47 40 50 58 59 70 85 86 89 90 87 78 72 63 60 57 53 51 46 40 33 32 29 26 22 18 15 15 14 14 19
17 8 14 5 22 20 6 52 25 28 18 25 32 39 46 49 49 50 44 41 41 54 62 70 80 84 87 94 88 81 73 64 59 55 53 50 45 40 35 33 30 26 22 18 17 18 15 18 22
4 22 40 32 9 17 13 49 6 18 45 63 60 65 54 54 52 56 43 40 36 47 59 69 72 84 88 87 88 82 75 68 61 55 51 47 44 40 35 31 29 26 21 19 20 20 18 21 25
33 40 39 40 16 37 53 64 55 59 54 61 58 56 55 54 56 55 48 36 35 46 60 66 72 78 83 83 89 84 77 74 68 60 52 48 44 44 39 32 28 24 22 20 22 22 22 22 23
28 32 41 50 48 42 48 46 61 52 59 58 66 58 56 55 59 56 56 42 38 53 66 67 77 81 87 85 86 84 83 78 71 62 52 46 44 43 38 33 28 27 25 23 24 24 23 23 19
29 35 42 34 25 35 52 56 59 55 51 64 69 64 64 57 56 58 67 51 44 60 71 68 72 80 82 85 82 79 85 79 71 63 54 47 45 45 39 33 31 29 26 25 27 25 23 21 16
23 24 31 45 48 41 51 48 35 47 40 40 52 64 64 64 61 66 73 62 48 56 75 78 73 74 81 81 71 72 75 71 69 62 56 51 48 49 40 34 29 25 24 26 24 21 18 18 16
25 10 35 49 38 22 30 24 41 30 27 23 39 53 57 61 67 66 73 69 51 55 62 84 77 74 76 83 77 71 78 78 72 69 60 55 53 50 43 35 29 27 25 22 20 20 18 13 13
19 34 44 48 39 29 21 12 17 27 25 39 34 45 55 59 60 68 68 59 57 51 59 82 87 80 72 71 73 65 67 66 62 60 61 61 55 51 44 37 33 28 26 22 17 17 13 12 10
36 32 45 5 2 8 11 10 24 13 22 43 49 49 50 55 63 68 67 62 50 48 53 71 91 83 71 65 62 65 68 62 60 65 65 65 59 52 46 41 36 32 27 24 19 13 14 10 8
23 25 10 6 6 13 7 8 24 32 29 47 44 47 34 43 53 60 57 48 46 50 55 67 86 88 80 64 61 60 59 55 57 61 71 67 61 55 52 47 43 36 33 24 17 11 8 5 6
30 9 3 14 18 34 28 11 9 25 34 54 45 37 15 36 50 50 55 50 48 57 57 65 83 90 74 62 37 55 59 58 54 63 70 61 63 63 56 53 46 38 30 22 15 8 5 3 4
10 21 24 11 13 13 6 10 21 23 45 51 48 47 27 14 41 47 52 51 50 57 61 65 67 82 83 63 60 63 71 63 54 63 64 67 65 61 57 54 45 36 30 22 14 8 4 3 6
13 21 7 4 13 15 9 9 8 41 53 52 46 43 44 25 17 39 51 52 50 54 57 57 63 80 85 83 79 82 80 75 76 78 78 74 69 65 56 52 44 39 30 20 13 9 6 5 6
9 9 7 8 7 9 10 9 10 30 35 38 40 52 41 28 22 29 43 45 49 50 53 64 66 77 85 84 76 76 74 72 79 75 69 65 69 63 44 56 47 37 25 19 15 9 5 3 3
8 13 17 7 13 8 7 9 16 30 29 35 40 57 47 26 19 25 31 38 52 58 66 64 80 78 73 73 71 83 79 75 77 80 74 70 77 62 66 57 43 32 26 22 13 7 5 4 9
Wind_Direction_850mb
212 190 168 153 205 248 223 219 288 216 209 42 165 208 239 276 198 249 322 286 206 195 184 184 184 180 181 178 179 179 179 179 183 184 181 175 176 176 174 170 167 165 159 155 152 153 154 153 146
166 160 151 123 234 223 223 225 212 220 346 323 284 267 249 267 253 281 306 278 201 211 191 186 186 184 182 181 181 180 181 184 184 185 184 182 181 179 175 172 166 164 162 159 158 160 158 160 159
158 158 155 189 213 230 251 192 245 286 314 326 308 301 280 275 320 290 310 288 197 207 193 188 186 187 186 183 183 184 184 185 187 192 190 186 183 182 177 172 168 168 168 166 167 165 166 175 188
149 142 74 228 215 215 264 136 354 341 280 22 328 283 287 312 318 308 309 290 219 201 194 191 189 189 190 186 186 186 189 192 193 194 193 188 181 181 176 173 173 173 174 175 175 173 171 189 192
156 140 206 233 226 258 239 267 296 313 306 315 334 282 296 347 19 1 328 285 251 209 196 193 190 191 193 192 189 189 192 195 195 192 188 186 182 181 178 176 177 179 179 183 181 180 181 188 187
117 90 222 242 233 225 259 309 301 311 320 316 323 307 258 113 2 350 340 298 222 206 199 194 193 191 193 195 193 193 192 192 193 190 186 185 184 183 181 181 180 181 184 188 189 187 185 188 180
81 169 265 293 234 276 7 348 41 8 321 302 323 283 276 266 339 337 331 298 216 205 200 195 192 191 196 198 197 196 194 192 191 190 188 187 185 185 185 183 183 184 186 193 198 198 185 185 197
105 75 342 339 2 257 262 346 332 326 304 309 286 257 284 286 324 330 329 284 230 213 202 198 196 194 193 194 197 197 197 194 193 193 190 188 186 188 188 187 185 188 189 196 204 203 190 185 170
107 184 215 241 235 205 296 314 298 291 278 279 268 279 286 298 315 322 307 256 220 212 201 200 197 197 196 197 194 196 198 197 197 196 193 189 188 190 192 191 188 191 194 201 208 205 203 222 267
147 210 222 209 220 265 283 281 283 281 279 278 279 280 288 295 307 304 277 247 225 214 202 200 198 200 197 197 198 195 197 197 198 198 195 192 191 195 194 195 193 192 198 201 205 204 214 236 267
156 253 243 252 259 287 264 274 275 268 266 266 271 285 290 296 297 284 276 255 234 218 207 202 202 203 200 198 197 198 199 199 200 200 199 194 193 196 196 199 196 194 198 196 195 203 221 242 264
273 261 266 283 285 276 268 280 270 258 258 269 269 277 285 285 288 288 270 252 233 223 213 209 207 205 203 204 201 201 201 203 203 200 199 197 197 198 200 200 194 197 199 199 206 218 243 260 271
251 254 267 277 281 276 279 265 263 270 264 259 262 265 269 273 283 287 285 251 232 222 220 211 211 208 205 206 205 204 205 205 204 203 200 200 202 203 203 200 195 198 203 211 221 239 260 255 264
285 284 289 281 275 271 259 270 257 264 275 264 264 258 266 270 273 277 284 251 227 239 226 216 213 213 209 206 208 206 207 207 206 207 203 203 205 207 205 201 195 202 210 223 236 244 253 252 279
285 295 308 283 296 257 301 268 244 263 282 276 266 266 268 271 268 266 271 266 236 237 236 224 218 216 211 207 208 208 209 207 209 208 207 207 206 209 205 199 200 213 220 229 246 238 248 270 284
296 289 325 356 287 306 283 278 295 273 261 263 261 269 286 276 272 264 266 261 251 229 222 224 218 213 210 208 208 208 209 210 211 213 209 209 208 210 209 206 210 219 225 237 240 245 257 275 292
10 308 314 315 297 290 257 290 288 270 284 276 267 269 268 272 275 261 264 258 250 234 221 214 210 208 208 208 207 209 210 210 212 215 215 212 211 211 205 208 216 226 235 242 241 247 265 280 295
307 305 302 294 286 287 284 280 285 282 273 270 267 262 259 256 265 260 261 260 238 227 220 215 209 203 204 204 204 207 207 208 211 214 214 213 212 209 213 218 219 230 240 246 247 254 269 286 298
294 292 292 292 296 291 275 282 284 283 273 264 260 253 245 247 254 256 254 255 232 220 211 213 203 205 208 206 205 205 206 208 210 214 215 216 212 211 213 218 222 226 237 245 249 259 276 290 295
287 287 287 291 293 300 290 286 288 284 276 270 264 256 246 237 240 250 245 250 236 217 212 210 213 210 208 208 205 207 205 206 210 212 215 216 211 210 215 224 223 231 240 247 251 260 272 275 283
290 273 286 295 307 288 287 285 290 300 303 281 269 257 253 245 235 235 238 237 234 214 216 209 207 210 211 207 200 197 198 205 209 211 214 212 208 209 214 216 224 237 239 240 248 255 266 269 294
307 311 299 297 308 306 330 297 301 308 319 304 273 265 257 241 235 236 236 231 226 225 220 214 202 197 201 200 194 194 194 199 205 210 210 204 203 204 208 215 222 226 230 236 245 263 266 263 284
279 311 292 292 290 301 296 259 275 311 329 337 314 274 265 242 224 227 232 230 225 220 218 211 202 199 195 194 192 189 196 203 209 209 205 202 196 203 209 214 217 220 223 228 241 254 262 267 287
294 303 303 11 288 256 235 236 293 303 328 330 316 302 267 237 224 230 227 224 229 212 198 205 199 199 196 190 190 192 196 199 201 202 197 196 198 205 206 210 212 215 220 223 234 257 258 269 295
320 354 314 313 263 299 137 239 274 306 318 319 318 313 279 233 219 221 228 206 220 214 189 201 197 197 198 193 184 193 200 200 198 197 194 192 200 205 205 208 206 210 215 217 226 227 245 278 309
322 338 301 307 311 303 312 242 265 325 316 330 327 328 320 240 223 213 220 203 209 217 203 190 188 195 195 197 202 205 201 195 194 195 192 195 204 206 204 204 203 205 207 214 205 205 243 300 275
10 327 324 267 251 277 270 276 285 311 335 344 338 336 338 294 235 213 206 202 202 210 207 201 191 202 204 222 208 201 201 193 192 201 202 204 207 203 197 199 195 207 205 193 189 194 192 222 274
302 317 289 261 308 311 326 299 298 331 331 333 338 329 322 316 284 212 199 201 198 198 197 190 193 195 196 201 197 198 202 203 195 205 196 197 202 199 192 192 190 197 179 166 173 161 161 257 284
354 322 302 258 255 284 315 322 281 321 327 330 329 324 315 297 269 226 204 194 189 186 187 190 180 187 189 193 194 202 209 206 206 209 199 197 196 197 195 188 189 179 158 158 171 157 200 248 357
341 318 311 286 317 296 258 280 347 337 342 345 337 331 321 283 232 195 184 182 181 178 187 190 196 192 198 194 194 194 198 205 201 202 202 201 195 197 178 179 171 163 160 161 156 156 162 102 11